Weather History for KCDN - December, 2012

Change the Weather History Date:

Tuesday, December 11, 2012

  Actual Average (KSSC) Record (KSSC)
Temperature  
Mean Temperature 60 °F -  
Max Temperature 66 °F 56 °F 79 °F (2007)
Min Temperature 53 °F 35 °F 27 °F (2014)
Degree Days  
Heating Degree Days 6    
Growing Degree Days 10 (Base 50)    
Moisture  
Dew Point 51 °F    
Average Humidity 73    
Maximum Humidity 100    
Minimum Humidity 49    
Precipitation  
Precipitation 0.00 in - - ()
Sea Level Pressure  
Sea Level Pressure 29.94 in    
Wind  
Wind Speed 4 mph (West)    
Max Wind Speed 10 mph    
Max Gust Speed -    
Visibility 10 miles    
Events      
Averages and records for this station are not official NWS values.
T = Trace of Precipitation, MM = Missing Value Source: NWS Daily Summary

Daily Weather History Graph

Daily Weather History Graph

Search for Another Location

Airport or City:

Trip Planner

Search our weather history database for the weather conditions in past years. The results will help you decide how hot, cold, wet, or windy it might be!

Date:

Astronomy

Dec. 11, 2012 Rise Set
Actual Time 7:18 AM EST 5:12 PM EST
Civil Twilight 6:50 AM EST 5:40 PM EST
Nautical Twilight 6:19 AM EST 6:12 PM EST
Astronomical Twilight 5:48 AM EST 6:42 PM EST
Moon 5:14 AM EST (12/11) 3:48 PM EST (12/11)
Length of Visible Light 10h 49m
Length of Day
9h 54m
Waning Crescent, 4% of the Moon is Illuminated
Dec 11
Waning Crescent
Dec 13
New
Dec 20
First Quarter
Dec 28
Full
Jan 4
Last Quarter

Hourly Weather History & Observations

Time (EST) Temp. Dew Point Humidity Pressure Visibility Wind Dir Wind Speed Gust Speed Precip Events Conditions
12:15 AM 60.8 °F 59.0 °F 94% 29.78 in 10.0 mi Calm Calm - 0.00 in   Overcast
12:35 AM 62.6 °F 60.8 °F 94% 29.78 in 10.0 mi SW 3.5 mph - 0.00 in   Mostly Cloudy
12:55 AM 60.8 °F 59.0 °F 94% 29.77 in 10.0 mi Calm Calm - 0.00 in   Mostly Cloudy
1:15 AM 60.8 °F 59.0 °F 94% 29.77 in 10.0 mi Calm Calm - 0.00 in   Partly Cloudy
1:35 AM 59.0 °F 57.2 °F 94% 29.79 in 10.0 mi Calm Calm - 0.00 in   Clear
1:55 AM 57.2 °F 57.2 °F 100% 29.80 in 10.0 mi Calm Calm - 0.00 in   Mostly Cloudy
2:15 AM 60.8 °F 60.8 °F 100% 29.80 in 10.0 mi SW 3.5 mph - 0.00 in   Overcast
2:35 AM 60.8 °F 59.0 °F 94% 29.81 in 10.0 mi Calm Calm - 0.00 in   Overcast
2:55 AM 60.8 °F 59.0 °F 94% 29.81 in 10.0 mi South 3.5 mph - 0.00 in   Overcast
3:15 AM 60.8 °F 59.0 °F 94% 29.81 in 10.0 mi South 3.5 mph - 0.00 in   Overcast
3:35 AM 60.8 °F 59.0 °F 94% 29.81 in 10.0 mi South 3.5 mph - 0.00 in   Mostly Cloudy
3:55 AM 60.8 °F 59.0 °F 94% 29.82 in 10.0 mi South 4.6 mph - 0.00 in   Partly Cloudy
4:15 AM 60.8 °F 59.0 °F 94% 29.82 in 10.0 mi SW 4.6 mph - 0.00 in   Scattered Clouds
4:35 AM 59.0 °F 57.2 °F 94% 29.83 in 10.0 mi WSW 4.6 mph - 0.00 in   Overcast
4:55 AM 60.8 °F 59.0 °F 94% 29.83 in 10.0 mi SW 5.8 mph - 0.00 in   Overcast
5:15 AM 60.8 °F 59.0 °F 94% 29.84 in 10.0 mi WSW 5.8 mph - 0.00 in   Overcast
5:35 AM 60.8 °F 59.0 °F 94% 29.85 in 10.0 mi WSW 5.8 mph - 0.00 in   Overcast
5:55 AM 60.8 °F 59.0 °F 94% 29.85 in 10.0 mi WSW 4.6 mph - 0.00 in   Overcast
6:15 AM 59.0 °F 57.2 °F 94% 29.86 in 10.0 mi WSW 3.5 mph - 0.00 in   Scattered Clouds
6:35 AM 57.2 °F 57.2 °F 100% 29.87 in 10.0 mi WSW 4.6 mph - 0.00 in   Clear
6:55 AM 59.0 °F 57.2 °F 94% 29.88 in 10.0 mi WSW 6.9 mph - 0.00 in   Mostly Cloudy
7:15 AM 60.8 °F 57.2 °F 88% 29.89 in 10.0 mi WSW 6.9 mph - 0.00 in   Overcast
7:35 AM 60.8 °F 57.2 °F 88% 29.90 in 10.0 mi WSW 6.9 mph - 0.00 in   Overcast
7:55 AM 60.8 °F 57.2 °F 88% 29.91 in 10.0 mi WSW 9.2 mph - 0.00 in   Overcast
8:15 AM 60.8 °F 55.4 °F 82% 29.91 in 10.0 mi West 5.8 mph - 0.00 in   Overcast
8:35 AM 62.6 °F 55.4 °F 77% 29.92 in 10.0 mi WSW 5.8 mph - 0.00 in   Overcast
8:55 AM 60.8 °F 55.4 °F 82% 29.92 in 10.0 mi WSW 5.8 mph - 0.00 in   Overcast
9:15 AM 62.6 °F 53.6 °F 72% 29.92 in 10.0 mi SW 4.6 mph - 0.00 in   Overcast
9:35 AM 62.6 °F 53.6 °F 72% 29.93 in 10.0 mi SSW 5.8 mph - 0.00 in   Overcast
9:55 AM 62.6 °F 53.6 °F 72% 29.95 in 10.0 mi SW 6.9 mph - 0.00 in   Overcast
10:15 AM 62.6 °F 51.8 °F 68% 29.96 in 10.0 mi WSW 6.9 mph - 0.00 in   Overcast
10:35 AM 62.6 °F 51.8 °F 68% 29.97 in 10.0 mi WSW 8.1 mph - 0.00 in   Overcast
10:55 AM 62.6 °F 51.8 °F 68% 29.96 in 10.0 mi West 6.9 mph - 0.00 in   Mostly Cloudy
11:15 AM 62.6 °F 50.0 °F 63% 29.96 in 10.0 mi West 6.9 mph - 0.00 in   Mostly Cloudy
11:35 AM 62.6 °F 50.0 °F 63% 29.96 in 10.0 mi West 6.9 mph - 0.00 in   Partly Cloudy
11:55 AM 64.4 °F 51.8 °F 64% 29.96 in 10.0 mi WSW 4.6 mph - 0.00 in   Partly Cloudy
12:15 PM 64.4 °F 51.8 °F 64% 29.95 in 10.0 mi Calm Calm - 0.00 in   Partly Cloudy
12:35 PM 64.4 °F 51.8 °F 64% 29.95 in 10.0 mi West 6.9 mph - 0.00 in   Partly Cloudy
12:55 PM 66.2 °F 50.0 °F 56% 29.95 in 10.0 mi SW 4.6 mph - 0.00 in   Clear
1:15 PM 66.2 °F 48.2 °F 52% 29.95 in 10.0 mi WSW 4.6 mph - 0.00 in   Clear
1:35 PM 64.4 °F 46.4 °F 52% 29.95 in 10.0 mi SW 4.6 mph - 0.00 in   Partly Cloudy
1:55 PM 64.4 °F 46.4 °F 52% 29.96 in 10.0 mi SW 6.9 mph - 0.00 in   Scattered Clouds
2:15 PM 64.4 °F 46.4 °F 52% 29.96 in 10.0 mi WSW 8.1 mph - 0.00 in   Clear
2:35 PM 64.4 °F 46.4 °F 52% 29.96 in 10.0 mi WSW 8.1 mph - 0.00 in   Partly Cloudy
2:55 PM 64.4 °F 44.6 °F 49% 29.95 in 10.0 mi WSW 8.1 mph - 0.00 in   Partly Cloudy
3:15 PM 64.4 °F 44.6 °F 49% 29.96 in 10.0 mi West 6.9 mph - 0.00 in   Scattered Clouds
3:35 PM 64.4 °F 44.6 °F 49% 29.97 in 10.0 mi West 6.9 mph - 0.00 in   Partly Cloudy
3:55 PM 64.4 °F 44.6 °F 49% 29.98 in 10.0 mi West 4.6 mph - 0.00 in   Scattered Clouds
4:15 PM 62.6 °F 51.8 °F 68% 29.98 in 10.0 mi NNW 5.8 mph - 0.00 in   Scattered Clouds
4:35 PM 62.6 °F 51.8 °F 68% 30.00 in 10.0 mi NW 3.5 mph - 0.00 in   Mostly Cloudy
4:55 PM 60.8 °F 51.8 °F 72% 30.00 in 10.0 mi NW 5.8 mph - 0.00 in   Mostly Cloudy
5:15 PM 60.8 °F 51.8 °F 72% 30.00 in 10.0 mi NW 5.8 mph - 0.00 in   Mostly Cloudy
5:35 PM 60.8 °F 50.0 °F 68% 30.01 in 10.0 mi NNW 5.8 mph - 0.00 in   Mostly Cloudy
5:55 PM 59.0 °F 50.0 °F 72% 30.01 in 10.0 mi NW 4.6 mph - 0.00 in   Scattered Clouds
6:15 PM 59.0 °F 50.0 °F 72% 30.02 in 10.0 mi NNW 4.6 mph - 0.00 in   Scattered Clouds
6:35 PM 57.2 °F 48.2 °F 72% 30.03 in 10.0 mi NNW 3.5 mph - 0.00 in   Mostly Cloudy
6:55 PM 57.2 °F 48.2 °F 72% 30.04 in 10.0 mi NW 5.8 mph - 0.00 in   Mostly Cloudy
7:15 PM 57.2 °F 46.4 °F 67% 30.05 in 10.0 mi NNW 5.8 mph - 0.00 in   Mostly Cloudy
7:35 PM 57.2 °F 46.4 °F 67% 30.05 in 10.0 mi NNW 5.8 mph - 0.00 in   Mostly Cloudy
7:55 PM 57.2 °F 46.4 °F 67% 30.05 in 10.0 mi NNW 3.5 mph - 0.00 in   Scattered Clouds
8:15 PM 57.2 °F 46.4 °F 67% 30.05 in 10.0 mi North 3.5 mph - 0.00 in   Scattered Clouds
8:35 PM 57.2 °F 46.4 °F 67% 30.06 in 10.0 mi NNE 6.9 mph - 0.00 in   Mostly Cloudy
8:55 PM 55.4 °F 42.8 °F 63% 30.07 in 10.0 mi NNE 10.4 mph - 0.00 in   Scattered Clouds
9:15 PM 55.4 °F 41.0 °F 58% 30.07 in 10.0 mi NE 9.2 mph - 0.00 in   Scattered Clouds
9:35 PM 55.4 °F 39.2 °F 54% 30.08 in 10.0 mi NNE 9.2 mph - 0.00 in   Mostly Cloudy
9:55 PM 55.4 °F 39.2 °F 54% 30.09 in 10.0 mi NNE 9.2 mph - 0.00 in   Mostly Cloudy
10:15 PM 55.4 °F 39.2 °F 54% 30.10 in 10.0 mi NE 8.1 mph - 0.00 in   Mostly Cloudy
10:35 PM 53.6 °F 39.2 °F 58% 30.10 in 10.0 mi NE 6.9 mph - 0.00 in   Mostly Cloudy
10:55 PM 53.6 °F 39.2 °F 58% 30.10 in 10.0 mi NE 6.9 mph - 0.00 in   Scattered Clouds
11:15 PM 53.6 °F 37.4 °F 54% 30.10 in 10.0 mi NNE 9.2 mph - 0.00 in   Mostly Cloudy
11:35 PM 53.6 °F 37.4 °F 54% 30.12 in 10.0 mi NNE 9.2 mph - 0.00 in   Mostly Cloudy
11:55 PM 53.6 °F 37.4 °F 54% 30.11 in 10.0 mi NNE 8.1 mph - 0.00 in   Scattered Clouds